This is the latest recevied weather packets stored in our database for station/object KB0Y. If no packets are shown the sender has not sent any weather packets the latest 10 day(s).
| Time | Temp. | Humidity | Pressure | Rain* | Wind** | Luminosity | Snow |
|---|---|---|---|---|---|---|---|
| 1777919000 | 25° C | 45% | 1021 hPa | 0 mm | - | 555 W/m² | - |
| 1777918697 | 25° C | 46% | 1021 hPa | 0 mm | - | 552 W/m² | - |
| 1777918394 | 25° C | 45% | 1021 hPa | 0 mm | - | 546 W/m² | - |
| 1777918093 | 25° C | 45% | 1021.3 hPa | 0 mm | - | 541 W/m² | - |
| 1777917791 | 25° C | 47% | 1021.3 hPa | 0 mm | - | 529 W/m² | - |
| 1777917489 | 25° C | 46% | 1021.3 hPa | 0 mm | - | 513 W/m² | - |
| 1777917185 | 25° C | 46% | 1021.3 hPa | 0 mm | - | 540 W/m² | - |
| 1777916884 | 25° C | 45% | 1021.3 hPa | 0 mm | - | 540 W/m² | - |
| 1777916581 | 25° C | 44% | 1021.6 hPa | 0 mm | - | 542 W/m² | - |
| 1777916277 | 25° C | 46% | 1021.3 hPa | 0 mm | - | 538 W/m² | - |
| 1777915974 | 24.44° C | 44% | 1021 hPa | 0 mm | - | 536 W/m² | - |
| 1777915671 | 24.44° C | 47% | 1021 hPa | 0 mm | - | 526 W/m² | - |
| 1777915367 | 24.44° C | 45% | 1021.3 hPa | 0 mm | - | 533 W/m² | - |
| 1777915063 | 24.44° C | 45% | 1021.6 hPa | 0 mm | - | 488 W/m² | - |
| 1777914761 | 24.44° C | 47% | 1021.6 hPa | 0 mm | - | 517 W/m² | - |
| 1777914458 | 24.44° C | 48% | 1021.6 hPa | 0 mm | - | 530 W/m² | - |
| 1777914155 | 25° C | 48% | 1021.6 hPa | 0 mm | - | 517 W/m² | - |
| 1777913851 | 23.89° C | 51% | 1021.6 hPa | 0 mm | - | 506 W/m² | - |
| 1777913547 | 23.89° C | 51% | 1021.3 hPa | 0 mm | - | 506 W/m² | - |
| 1777913244 | 23.89° C | 49% | 1021.6 hPa | 0 mm | - | 496 W/m² | - |
| 1777912941 | 23.89° C | 49% | 1021.6 hPa | 0 mm | - | 500 W/m² | - |
| 1777912637 | 24.44° C | 47% | 1021.6 hPa | 0 mm | - | 512 W/m² | - |
| 1777912333 | 24.44° C | 47% | 1021.6 hPa | 0 mm | - | 512 W/m² | - |
| 1777912029 | 24.44° C | 47% | 1021.6 hPa | 0 mm | - | 510 W/m² | - |
| 1777911725 | 24.44° C | 45% | 1022.1 hPa | 0 mm | - | 528 W/m² | - |
* Rain latest hour (hover to see other rain measurements)
** Current wind speed in m/s (hover to see current wind gust speed)